• In Hungary
  • List of Countries
  • For 7 days
  • Water Temperature
  • Satellite Maps
  • Weather Map
  • News
  • Weather Widgets
  • user-avatar
    Login

    Hourly Weather Abramovo

    Today, 22 October, Monday

    Time Temperature Precipitation Wind Pressure Humidity
    00:00 +2°C° 0 mm 2 mps 752 mmHg 89%
    01:00 +2°C° 0 mm 2 mps 752 mmHg 90%
    02:00 +2°C° 0 mm 2 mps 751 mmHg 92%
    03:00 +2°C° 0 mm 2 mps 751 mmHg 92%
    04:00 +1°C° 0 mm 3 mps 751 mmHg 92%
    05:00 +1°C° 0 mm 3 mps 750 mmHg 93%
    06:00 +1°C° 0 mm 3 mps 750 mmHg 91%
    07:00 +1°C° 0 mm 3 mps 750 mmHg 89%
    08:00 +1°C° 0 mm 4 mps 749 mmHg 87%
    09:00 +3°C° 0 mm 4 mps 749 mmHg 81%
    10:00 +5°C° 0 mm 4 mps 748 mmHg 75%
    11:00 +6°C° 0 mm 5 mps 748 mmHg 69%
    12:00 +6°C° 0 mm 5 mps 747 mmHg 67%
    13:00 +7°C° 0 mm 5 mps 746 mmHg 66%
    14:00 +7°C° 0 mm 5 mps 746 mmHg 64%
    15:00 +6°C° 0 mm 5 mps 745 mmHg 68%
    16:00 +6°C° 0 mm 5 mps 745 mmHg 71%
    17:00 +5°C° 0 mm 4 mps 744 mmHg 75%
    18:00 +5°C° 0 mm 5 mps 743 mmHg 77%
    19:00 +3°C° 0 mm 5 mps 743 mmHg 79%
    20:00 +3°C° 0 mm 5 mps 742 mmHg 80%
    21:00 +3°C° 0.3 mm 5 mps 742 mmHg 82%
    22:00 +4°C° 0.3 mm 4 mps 741 mmHg 84%
    23:00 +4°C° 0.3 mm 4 mps 740 mmHg 86%

    Tomorrow, 23 October, Tuesday

    Time Temperature Precipitation Wind Pressure Humidity
    00:00 +4°C° 0.6 mm 4 mps 740 mmHg 87%
    01:00 +5°C° 0.6 mm 4 mps 740 mmHg 89%
    02:00 +5°C° 0.6 mm 4 mps 739 mmHg 90%
    03:00 +4°C° 0.3 mm 3 mps 739 mmHg 90%
    04:00 +4°C° 0.3 mm 3 mps 739 mmHg 90%
    05:00 +4°C° 0.3 mm 3 mps 739 mmHg 90%
    06:00 +4°C° 0 mm 3 mps 739 mmHg 91%
    07:00 +3°C° 0 mm 3 mps 739 mmHg 91%
    08:00 +3°C° 0 mm 3 mps 738 mmHg 91%
    09:00 +4°C° 0 mm 3 mps 738 mmHg 85%
    10:00 +5°C° 0 mm 3 mps 738 mmHg 79%
    11:00 +5°C° 0 mm 3 mps 738 mmHg 73%
    12:00 +7°C° 0 mm 2 mps 737 mmHg 70%
    13:00 +7°C° 0 mm 2 mps 737 mmHg 68%
    14:00 +7°C° 0 mm 2 mps 736 mmHg 65%
    15:00 +6°C° 0 mm 2 mps 735 mmHg 70%
    16:00 +5°C° 0 mm 2 mps 735 mmHg 75%
    17:00 +4°C° 0 mm 2 mps 734 mmHg 80%
    18:00 +4°C° 0 mm 2 mps 733 mmHg 81%
    19:00 +4°C° 0 mm 2 mps 733 mmHg 83%
    20:00 +4°C° 0 mm 2 mps 732 mmHg 84%
    21:00 +3°C° 0 mm 2 mps 731 mmHg 85%
    22:00 +3°C° 0 mm 2 mps 731 mmHg 86%
    23:00 +3°C° 0 mm 2 mps 730 mmHg 88%

    Day after tomorrow, 24 October, Wednesday

    Time Temperature Precipitation Wind Pressure Humidity
    00:00 +2°C° 0 mm 2 mps 729 mmHg 89%
    01:00 +1°C° 0 mm 3 mps 728 mmHg 90%
    02:00 +1°C° 0 mm 3 mps 728 mmHg 91%
    03:00 +1°C° 0 mm 3 mps 727 mmHg 92%
    04:00 0°C° 0 mm 3 mps 726 mmHg 92%
    05:00 0°C° 0 mm 3 mps 725 mmHg 93%
    06:00 +1°C° 0 mm 3 mps 725 mmHg 92%
    07:00 +1°C° 0 mm 3 mps 724 mmHg 90%
    08:00 0°C° 0 mm 4 mps 724 mmHg 89%
    09:00 +1°C° 0.1 mm 4 mps 724 mmHg 85%
    10:00 +3°C° 0.1 mm 4 mps 724 mmHg 81%
    11:00 +4°C° 0.1 mm 4 mps 724 mmHg 78%
    12:00 +4°C° 0.2 mm 4 mps 724 mmHg 78%
    13:00 +4°C° 0.2 mm 4 mps 724 mmHg 77%
    14:00 +4°C° 0.2 mm 4 mps 724 mmHg 77%
    15:00 +4°C° 0.2 mm 4 mps 724 mmHg 79%
    16:00 +4°C° 0.2 mm 4 mps 724 mmHg 80%
    17:00 +3°C° 0.2 mm 4 mps 725 mmHg 81%
    18:00 +3°C° 0.1 mm 4 mps 725 mmHg 82%
    19:00 +3°C° 0.1 mm 4 mps 725 mmHg 83%
    20:00 +3°C° 0.1 mm 3 mps 725 mmHg 83%
    21:00 +2°C° 0.1 mm 3 mps 726 mmHg 85%
    22:00 +2°C° 0.1 mm 3 mps 726 mmHg 86%
    23:00 +2°C° 0.1 mm 3 mps 726 mmHg 88%

    25 October, Thursday

    Time Temperature Precipitation Wind Pressure Humidity
    00:00 +1°C° 0.3 mm 4 mps 726 mmHg 88%
    01:00 +1°C° 0.3 mm 4 mps 726 mmHg 88%
    02:00 +1°C° 0.3 mm 4 mps 727 mmHg 89%
    03:00 +1°C° 0.1 mm 4 mps 727 mmHg 89%
    04:00 +1°C° 0.1 mm 4 mps 727 mmHg 88%
    05:00 +1°C° 0.1 mm 4 mps 726 mmHg 88%
    06:00 +1°C° 0.1 mm 4 mps 726 mmHg 88%
    07:00 0°C° 0.1 mm 4 mps 726 mmHg 87%
    08:00 0°C° 0.1 mm 5 mps 726 mmHg 86%
    09:00 +1°C° 0 mm 5 mps 726 mmHg 84%
    10:00 +1°C° 0 mm 5 mps 725 mmHg 82%
    11:00 +2°C° 0 mm 5 mps 725 mmHg 80%
    12:00 +2°C° 0.1 mm 6 mps 724 mmHg 79%
    13:00 +2°C° 0.1 mm 6 mps 724 mmHg 77%
    14:00 +2°C° 0.1 mm 7 mps 723 mmHg 76%
    15:00 +1°C° 0.3 mm 6 mps 723 mmHg 77%
    16:00 +1°C° 0.3 mm 6 mps 723 mmHg 78%
    17:00 +1°C° 0.3 mm 6 mps 723 mmHg 79%
    18:00 -1°C° 0.4 mm 6 mps 723 mmHg 80%
    19:00 -1°C° 0.4 mm 6 mps 723 mmHg 80%
    20:00 -1°C° 0.4 mm 6 mps 723 mmHg 81%
    21:00 -1°C° 0.2 mm 6 mps 724 mmHg 81%
    22:00 -1°C° 0.2 mm 6 mps 724 mmHg 80%
    23:00 -2°C° 0.2 mm 6 mps 724 mmHg 80%

    26 October, Friday

    Time Temperature Precipitation Wind Pressure Humidity
    00:00 -1°C° 0.1 mm 5 mps 725 mmHg 81%
    01:00 -1°C° 0.1 mm 5 mps 725 mmHg 81%
    02:00 -2°C° 0.1 mm 5 mps 726 mmHg 82%
    03:00 -2°C° 0 mm 5 mps 726 mmHg 83%
    04:00 -2°C° 0 mm 5 mps 727 mmHg 83%
    05:00 -2°C° 0 mm 5 mps 727 mmHg 84%
    06:00 -2°C° 0 mm 5 mps 728 mmHg 84%
    07:00 -2°C° 0 mm 5 mps 728 mmHg 85%
    08:00 -1°C° 0 mm 5 mps 729 mmHg 85%
    09:00 -1°C° 0 mm 5 mps 729 mmHg 84%
    10:00 0°C° 0 mm 5 mps 730 mmHg 82%
    11:00 +1°C° 0 mm 5 mps 730 mmHg 81%
    12:00 +1°C° 0.1 mm 5 mps 731 mmHg 80%
    13:00 +1°C° 0.1 mm 5 mps 731 mmHg 80%
    14:00 +1°C° 0.1 mm 5 mps 732 mmHg 79%
    15:00 +1°C° 0.1 mm 5 mps 732 mmHg 80%
    16:00 +1°C° 0.1 mm 4 mps 733 mmHg 81%
    17:00 +1°C° 0.1 mm 4 mps 733 mmHg 82%
    18:00 0°C° 0 mm 4 mps 734 mmHg 82%
    19:00 -1°C° 0 mm 4 mps 735 mmHg 83%
    20:00 -1°C° 0 mm 4 mps 735 mmHg 84%
    21:00 -2°C° 0 mm 4 mps 736 mmHg 85%
    22:00 -1°C° 0 mm 3 mps 736 mmHg 86%
    23:00 -2°C° 0 mm 3 mps 737 mmHg 87%

    27 October, Saturday

    Time Temperature Precipitation Wind Pressure Humidity
    00:00 -2°C° 0 mm 3 mps 737 mmHg 88%
    01:00 -2°C° 0 mm 3 mps 738 mmHg 88%
    02:00 -2°C° 0 mm 3 mps 738 mmHg 89%
    03:00 -2°C° 0 mm 3 mps 738 mmHg 90%
    04:00 -2°C° 0 mm 2 mps 739 mmHg 91%
    05:00 -2°C° 0 mm 2 mps 739 mmHg 92%
    06:00 -1°C° 0 mm 3 mps 739 mmHg 90%
    07:00 -1°C° 0 mm 3 mps 739 mmHg 88%
    08:00 0°C° 0 mm 3 mps 738 mmHg 86%
    09:00 0°C° 0.2 mm 4 mps 738 mmHg 85%
    10:00 +1°C° 0.2 mm 4 mps 738 mmHg 83%
    11:00 +2°C° 0.2 mm 5 mps 738 mmHg 81%
    12:00 +2°C° 0.4 mm 5 mps 737 mmHg 82%
    13:00 +2°C° 0.4 mm 5 mps 737 mmHg 83%
    14:00 +3°C° 0.4 mm 5 mps 737 mmHg 84%
    15:00 +3°C° 0.2 mm 5 mps 737 mmHg 86%
    16:00 +3°C° 0.2 mm 5 mps 737 mmHg 88%
    17:00 +3°C° 0.2 mm 5 mps 737 mmHg 90%
    18:00 +4°C° 0 mm 4 mps 737 mmHg 91%
    19:00 +4°C° 0 mm 4 mps 737 mmHg 91%
    20:00 +4°C° 0 mm 4 mps 737 mmHg 92%
    21:00 +4°C° 0 mm 3 mps 738 mmHg 93%
    22:00 +4°C° 0 mm 3 mps 738 mmHg 93%
    23:00 +4°C° 0 mm 3 mps 739 mmHg 94%

    28 October, Sunday

    Time Temperature Precipitation Wind Pressure Humidity
    00:00 +5°C° 0 mm 2 mps 739 mmHg 95%
    01:00 +4°C° 0 mm 2 mps 739 mmHg 95%
    02:00 +3°C° 0 mm 2 mps 739 mmHg 96%
    03:00 +3°C° 0 mm 2 mps 739 mmHg 96%
    04:00 +3°C° 0 mm 2 mps 739 mmHg 96%
    05:00 +3°C° 0 mm 2 mps 739 mmHg 96%
    06:00 +3°C° 0.1 mm 2 mps 739 mmHg 95%
    07:00 +3°C° 0.1 mm 3 mps 738 mmHg 94%
    08:00 +3°C° 0.1 mm 3 mps 738 mmHg 93%
    09:00 +4°C° 1.2 mm 3 mps 737 mmHg 94%
    10:00 +5°C° 1.2 mm 4 mps 737 mmHg 94%
    11:00 +5°C° 1.2 mm 4 mps 736 mmHg 94%
    12:00 +6°C° 0.5 mm 4 mps 736 mmHg 92%
    13:00 +7°C° 0.5 mm 4 mps 735 mmHg 90%
    14:00 +9°C° 0.5 mm 5 mps 735 mmHg 89%
    15:00 +9°C° 0.1 mm 5 mps 734 mmHg 88%
    16:00 +9°C° 0.1 mm 5 mps 734 mmHg 87%
    17:00 +9°C° 0.1 mm 5 mps 734 mmHg 86%
    18:00 +10°C° 0 mm 5 mps 734 mmHg 85%
    19:00 +10°C° 0 mm 5 mps 734 mmHg 84%
    20:00 +12°C° 0 mm 5 mps 734 mmHg 83%
    21:00 +10°C° 0 mm 6 mps 735 mmHg 83%
    22:00 +10°C° 0 mm 6 mps 735 mmHg 84%
    23:00 +10°C° 0 mm 6 mps 735 mmHg 84%
    Show more